"Pseudo-MPEC" for P10OPWz

Created 2019 Jun 19 17:07:32 UT using Find_Orb

Click here for an explanation of pseudo-MPECs

 
 Astrometry: 
     P10OPWz  C2019 06 08,*-AiC,*f0Z'#rqN`d:F]v;eqn-2T7?r.abQGFAstrometry=1'xF51
     P10OPWz  C2019 06 084y%+'?pue-rZsiNZ!(ruU6=17=(HD\x_gY$7UCyMXrp,RKi$FD^6F51
     P10OPWz  C2019 06 08;oM2wu1XWc=yBvjwsi$Q;N^H'L%17@Zd,X`=6q-JI);#^YT-lH-sF51
     P10OPWz  C2019 06 08N.R9ELtcY,IvBu#OE3`Z6E9DyGk!.OpqioC=YI\ykWVt#\a=Q0voF51
     P10OPWz  C2019 06 11.40470 20 15 53.49 -20 59 53.3    ~6BAM 19.1 GVNEOCPG96
     P10OPWz  C2019 06 11.40939 20 15 53.87 -20 59 33.5    ~6BAM       VNEOCPG96
     P10OPWz  C2019 06 11.41409 20 15 54.28 -20 59 13.8    ~6BAM 19.3 GVNEOCPG96
     P10OPWz  C2019 06 11.41878 20 15 54.68 -20 58 53.8    ~6BAM 19.3 GVNEOCPG96
     P10OPWz  C2019 06 11.55156120 16 08.73 -20 49 19.0    ~6BIM 18.87oVNEOCPT05
     P10OPWz  C2019 06 11.55575520 16 09.12 -20 49 00.8    ~6BIM 19.08oVNEOCPT05
     P10OPWz  C2019 06 11.56096120 16 09.53 -20 48 38.1    ~6BIM 19.14oVNEOCPT05
     P10OPWz  C2019 06 11.56141920 16 09.52 -20 48 37.2    ~6BIM 18.74oVNEOCPT05
     P10OPWz  C2019 06 11.57886320 16 10.98 -20 47 20.9    ~6BIM 19.05oVNEOCPT05
     P10OPWz  C2019 06 12.37169 20 17 38.08 -19 48 41.5    ~6C9b 19.9 GVNEOCPI52
     P10OPWz  C2019 06 12.37187 20 17 38.06 -19 48 40.2    ~6C9b 19.6 GVNEOCPI52
     P10OPWz  C2019 06 12.38751 20 17 39.46 -19 47 29.4    ~6C9b 19.0 GVNEOCPI52
     P10OPWz  C2019 06 121gp?+FjVi_,rUUU21NiG6agWN=M_*CXjiF2bF4#si2sVxHyE8`=%F51
     P10OPWz  C2019 06 12kCk*'h=K2?rD[rcpO69bdo`fo_$UW]Mrredacted;-ba$3sw_=Y2F51
     P10OPWz  C2019 06 12Z);qBW5lq!aW%p4D6ww_WULPSfHfR\ImSkKB]BCxSoA?m2/cUA?'F51
     P10OPWz  C2019 06 13.39084 20 19 29.96 -18 27 17.7    ~6DA7 19.1 GVNEOCP703
     P10OPWz  C2019 06 13.39637 20 19 30.45 -18 26 50.5    ~6DA7 18.9 GVNEOCP703
     P10OPWz  C2019 06 13.40190 20 19 30.97 -18 26 22.9    ~6DA7 19.3 GVNEOCP703
     P10OPWz  C2019 06 13.40743 20 19 31.45 -18 25 55.5    ~6DA7 18.7 GVNEOCP703
     P10OPWz  C2019 06 13.45068 20 19 35.35 -18 22 19.0    ~6DBM 18.8 GVNEOCPI52
     P10OPWz  C2019 06 13.45483 20 19 35.69 -18 21 58.1    ~6DBM 19.2 GVNEOCPI52
     P10OPWz  C2019 06 13.45661 20 19 35.87 -18 21 48.7    ~6DBM 19.2 GVNEOCPI52
     P10OPWz  C2019 06 13.45752 20 19 35.93 -18 21 44.7    ~6DBM 19.1 GVNEOCPI52
     P10OPWz  C2019 06 14.31500 20 21 15.94 -17 07 11.0    ~6E87 20.3 GVNEOCPI52
     P10OPWz  C2019 06 14.31612 20 21 16.11 -17 07 05.0    ~6E87 19.0 GVNEOCPI52
     P10OPWz  C2019 06 14.31767 20 21 16.23 -17 06 57.1    ~6E87 19.2 GVNEOCPI52
     P10OPWz  C2019 06 14.32508 20 21 16.95 -17 06 16.8    ~6E87 18.5 GVNEOCPI52
     P10OPWz KC2019 06 14KLGs8yVamc,r,D:)BH,7i%*!uneP5^1`0Y42DcY-IQmmlw6n]']bH21
     P10OPWz KC2019 06 14f97ZXgIRcew(xuEW)n/vbUMR#0Y`LyScY1*\click']F-w5sZ2V)H21
     P10OPWz KC2019 06 14u,k*Zw-D0GK0!hC2M:0!2W7gPKy`TNmyX've%-2Pqgs:F@n0ovX`H21
     P10OPWz  C2019 06 14c.2IfjfwgIT-tu5u/C60mfhSPPeFy,k;Lm8h5olCf\!nb17Ru*c8F52
     P10OPWz  C2019 06 14H9WImc:b5-!$vJJ?L6^blRJ#CVR(N;tw.QF!;`d*G?bDi2coI!W;F52
     P10OPWz  C2019 06 14-[r+kJg??apM8)-VG8X@Tcg?Xjui_($1gI[ThThere;_[.Ud;fe-F52
     P10OPWz  C2019 06 14D+bn)?snI2Q'CPXMs2hXmPg2lSQSQ];Q+xKfq?i)pqi!^tp^,5tPF52
     P10OPWz  C2019 06 15.37074 20 23 18.12 -15 27 39.2    ~6F9q 19.0 GVNEOCPI52
     P10OPWz  C2019 06 15.37098 20 23 18.13 -15 27 36.4    ~6F9q 19.2 GVNEOCPI52
     P10OPWz  C2019 06 15.37216 20 23 18.28 -15 27 29.9    ~6F9q 18.5 GVNEOCPI52
     P10OPWz  C2019 06 15.45204520 23 29.01 -15 19 23.1    ~6FH7 18.51oVNEOCPT05
     P10OPWz  C2019 06 15.46098620 23 29.85 -15 18 30.3    ~6FH7 18.34oVNEOCPT05
     P10OPWz  C2019 06 15.51426520 23 34.95 -15 13 12.7    ~6FH7 18.60oVNEOCPT05
     P10OPWz  C2019 06 15.52410920 23 35.90 -15 12 14.0    ~6FH7 18.76oVNEOCPT05
     P10OPWz  C2019 06 15['[4Yr*0$([DTU37%*n,dZsIgk8auMhVaGOE2-NmQ\Hds(I7v/naF51
     P10OPWz  C2019 06 15iAdV2Vq-):cDaljsyrAP.Co'forKs'g=J.[[t7R'@lD.kb[jZVuBF51
     P10OPWz  C2019 06 15TjJYbw[iexplanationdRmL3NJ'[DM%=5p%K;:'6\[Z,;B]Pe!)XF51
     P10OPWz KC2019 06 16Ma'ABb?oB\_lb0-7w^MWEBS(rr*U+1Ll9m4!2]CoB6WRw3DuqK,pL01
     P10OPWz KC2019 06 16m:y?2)Oqn!=-n+cZi`Oev`NMIEg/;4In-6w\-F]KS+Vp@yWoe-0]L01
     P10OPWz KC2019 06 16[]y^\@nR.=F;-xR;Di@QOPoPY;@NxfQ:q.TYUt3-(QpH\Ey^:)qXL01

Station data:
(703) Catalina Sky Survey  (N32.417006 W110.732640)  US/Arizona.  Observers
   T. A. Pruyne, B. M. Africano, E. J. Christensen, G. A. Farneth, D. C.
   Fuls, A. R. Gibbs, A. D. Grauer, H. Groeller, J. A. Johnson, R. A.
   Kowalski, S. M. Larson, G. J. Leonard, R. L. Seaman, F. C. Shelly. 0.68 m
   Schmidt + 10K CCD.
(F51) Pan-STARRS 1, Haleakala  (N20.707235 W156.255910)  US/Hawaii.
   Observers N. Primak, A. Schultz, S. Watters, J. Thiel, T. Goggia. Measurer
   PS1 Science Consortium. 1.8-m Ritchey-Chrétien + CCD.
(F52) Pan-STARRS 2, Haleakala  (N20.707384 W156.255910)  US/Hawaii. 1.8-m
   Ritchey-Chrétien + CCD.
(G96) Mt. Lemmon Survey  (N32.442754 W110.788720)  US/Arizona.  Observers T.
   A. Pruyne, B. M. Africano, E. J. Christensen, G. A. Farneth, D. C. Fuls,
   A. R. Gibbs, A. D. Grauer, H. Groeller, J. A. Johnson, R. A. Kowalski, S.
   M. Larson, G. J. Leonard, R. L. Seaman, F. C. Shelly. 1.5-m reflector +
   10K CCD.
(H21) Astronomical Research Observatory, Westfield  (N39.483057 W87.968270)
   US/Illinois. 0.76-m f/3.0 astrograph + CCD.
(I52) Steward Observatory, Mt. Lemmon Station  (N32.442547 W110.788920)
   US/Arizona.  Observers T. A. Pruyne, B. M. Africano, E. J. Christensen, G.
   A. Farneth, D. C. Fuls, A. R. Gibbs, A. D. Grauer, H. Groeller, J. A.
   Johnson, R. A. Kowalski, S. M. Larson, G. J. Leonard, R. L. Seaman, F. C.
   Shelly. 1.0-m reflector + CCD.
(L01) Višnjan Observatory, Tičan  (N45.290900 E13.749300)  Croatia.
   Observers K. Korlević, E. Pettarin. Measurer E. Pettarin. 1.0-m f/2.9
   reflector + CCD.
(T05) ATLAS-HKO, Haleakala  (N20.707573 W156.257010)  US/Hawaii.  Observers
   L. Denneau, A. Heinze, H. Weiland, J. Tonry, H. Flewelling, A.
   Fitzsimmons, D. Young, B. Stalder. Measurers L. Denneau, A. Heinze, J.
   Tonry. 0.5-m f/2.0 Schmidt + CCD.

Orbital elements:  P10OPWz
   Perihelion 2019 Sep 13.998345 +/- 0.0763 TT = 23:57:37 (JD 2458740.498345)
Epoch 2019 Jun 16.0 TT = JDT 2458650.5   Earth MOID: 0.0631   Ve: 0.0845
M 280.54062701 +/- 0.15             (J2000 ecliptic)          AutoNEOCP
n   0.88289815 +/- 0.000949         Peri.  118.39639 +/- 0.053
a   1.07612398 +/- 0.000771         Node   266.20688 +/- 0.012
e   0.3196926 +/- 0.000758          Incl.   12.44239 +/- 0.035
P   1.12/407.74d           H 21.7   G  0.15   U  8.1  
q 0.73209509 +/- 0.000294    Q 1.42015286 +/- 0.00184
From 51 observations 2019 June 8-16; mean residual 0".31
Residuals in arcseconds: 
190608 F51  .01+  .01+    190612 F51  .08+  .02-    190614 F52  .01+  .11-    
190608 F51  .05-  .01+    190612 F51  .04+  .14-    190614 F52  .06+  .01-    
190608 F51  .02-  .01-    190613 703  .51+  .66+    190614 F52  .04+  .04+    
190608 F51  .01+  .01+    190613 703  .36+  .32+    190614 F52  .00   .03-    
190611 G96  .15+  .04+    190613 703  .64+  .36+    190615 I52  .50-  1.3-    
190611 G96  .20-  .01-    190613 703  .36+  .17+    190615 I52  .69-  .06+    
190611 G96  .15-  .22-    190613 I52  .31+  .21-    190615 I52  .18-  .40-    
190611 G96  .21-  .11-    190613 I52  .19-  .22-    190615 T05  .31+  .32-    
190611 T05  .10+  .14-    190613 I52  .08+  .20+    190615 T05  .22-  .40-    
190611 T05  .62+  .05+    190613 I52  .24-  .39-    190615 T05  .28-  .33+    
190611 T05  .22+  .36+    190614 I52  .47-  .32-    190615 T05  .05+  .14+    
190611 T05  .46-  .71-    190614 I52  .39+  .30-    190615 F51  .15+  .16+    
190611 T05  .61-  .36+    190614 I52  .06-  .69-    190615 F51  .08+  .14+    
190612 I52  .06+  .06+    190614 I52  .07-  .04-    190615 F51  .06+  .05+    
190612 I52  .45-  .54+    190614 H21  .02+  .06+    190616 L01  .12-  .33+    
190612 I52  .33-  .06-    190614 H21  .07-  .08+    190616 L01  .17+  .30+    
190612 F51  .06+  .08-    190614 H21  .03-  .05+    190616 L01  .07+  .22+    

Ephemerides (geocentric):
Date (UTC) HH   RA              Dec         delta   r     elong  mag " sig PA
---- -- -- --  -------------   -----------  ------ ------ -----  --- ---- ---
2019 06 19 17  20 32 42.072   -06 43 01.93  .11365 1.1028 137.7 18.7 .748 132
2019 06 19 18  20 32 48.099   -06 36 55.25  .11342 1.1026 137.7 18.7 .759 132
2019 06 19 19  20 32 54.140   -06 30 47.15  .11319 1.1024 137.6 18.7 .769 132
2019 06 19 20  20 33 00.195   -06 24 37.62  .11296 1.1022 137.6 18.7 .779 133
2019 06 19 21  20 33 06.264   -06 18 26.65  .11273 1.1019 137.6 18.7 .790 133
2019 06 19 22  20 33 12.347   -06 12 14.25  .11251 1.1017 137.5 18.7 .800 133
2019 06 19 23  20 33 18.445   -06 06 00.39  .11228 1.1015 137.5 18.7 .811 133
2019 06 20 00  20 33 24.557   -05 59 45.09  .11205 1.1013 137.5 18.7 .821 133
2019 06 20 01  20 33 30.684   -05 53 28.32  .11183 1.1011 137.4 18.7 .832 133
2019 06 20 02  20 33 36.826   -05 47 10.09  .11160 1.1009 137.4 18.7 .843 133
2019 06 20 03  20 33 42.982   -05 40 50.40  .11138 1.1006 137.4 18.7 .854 133
2019 06 20 04  20 33 49.153   -05 34 29.22  .11115 1.1004 137.3 18.7 .865 133
2019 06 20 05  20 33 55.339   -05 28 06.57  .11093 1.1002 137.3 18.7 .877 133
2019 06 20 06  20 34 01.539   -05 21 42.43  .11071 1.1000 137.2 18.7 .888 133
2019 06 20 07  20 34 07.755   -05 15 16.79  .11048 1.0998 137.2 18.7 .900 133
2019 06 20 08  20 34 13.986   -05 08 49.66  .11026 1.0996 137.2 18.7 .911 133
2019 06 20 09  20 34 20.233   -05 02 21.03  .11004 1.0994 137.1 18.7 .923 133
2019 06 20 10  20 34 26.495   -04 55 50.88  .10982 1.0991 137.1 18.7 .935 133
2019 06 20 11  20 34 32.772   -04 49 19.22  .10960 1.0989 137.1 18.7 .947 134
2019 06 20 12  20 34 39.065   -04 42 46.03  .10938 1.0987 137.0 18.7 .959 134
2019 06 20 13  20 34 45.373   -04 36 11.32  .10916 1.0985 137.0 18.7 .971 134
2019 06 20 14  20 34 51.698   -04 29 35.07  .10894 1.0983 136.9 18.7 .983 134
2019 06 20 15  20 34 58.038   -04 22 57.29  .10872 1.0981 136.9 18.7 1.00 134
2019 06 20 16  20 35 04.394   -04 16 17.96  .10850 1.0978 136.9 18.7 1.01 134
2019 06 20 17  20 35 10.766   -04 09 37.08  .10828 1.0976 136.8 18.7 1.02 134
2019 06 20 18  20 35 17.155   -04 02 54.65  .10806 1.0974 136.8 18.6 1.03 134
2019 06 20 19  20 35 23.559   -03 56 10.65  .10784 1.0972 136.7 18.6 1.05 134
2019 06 20 20  20 35 29.981   -03 49 25.08  .10763 1.0970 136.7 18.6 1.06 134
2019 06 20 21  20 35 36.418   -03 42 37.94  .10741 1.0968 136.6 18.6 1.07 134
2019 06 20 22  20 35 42.872   -03 35 49.22  .10719 1.0965 136.6 18.6 1.09 135
2019 06 20 23  20 35 49.343   -03 28 58.92  .10698 1.0963 136.6 18.6 1.10 135
2019 06 21 00  20 35 55.831   -03 22 07.02  .10676 1.0961 136.5 18.6 1.11 135
2019 06 21 01  20 36 02.336   -03 15 13.53  .10655 1.0959 136.5 18.6 1.13 135
2019 06 21 02  20 36 08.857   -03 08 18.43  .10633 1.0957 136.4 18.6 1.14 135
2019 06 21 03  20 36 15.396   -03 01 21.73  .10612 1.0955 136.4 18.6 1.15 135
2019 06 21 04  20 36 21.952   -02 54 23.41  .10591 1.0952 136.3 18.6 1.17 135
2019 06 21 05  20 36 28.526   -02 47 23.48  .10569 1.0950 136.3 18.6 1.18 135
2019 06 21 06  20 36 35.116   -02 40 21.92  .10548 1.0948 136.2 18.6 1.20 135
2019 06 21 07  20 36 41.725   -02 33 18.72  .10527 1.0946 136.2 18.6 1.21 135
2019 06 21 08  20 36 48.351   -02 26 13.89  .10506 1.0944 136.1 18.6 1.22 136
2019 06 21 09  20 36 54.995   -02 19 07.42  .10485 1.0942 136.1 18.6 1.24 136
2019 06 21 10  20 37 01.657   -02 11 59.30  .10464 1.0939 136.0 18.6 1.25 136
2019 06 21 11  20 37 08.337   -02 04 49.53  .10443 1.0937 136.0 18.6 1.27 136
2019 06 21 12  20 37 15.035   -01 57 38.10  .10422 1.0935 135.9 18.6 1.28 136
2019 06 21 13  20 37 21.751   -01 50 25.00  .10401 1.0933 135.9 18.6 1.30 136
2019 06 21 14  20 37 28.486   -01 43 10.23  .10380 1.0931 135.8 18.6 1.31 136
2019 06 21 15  20 37 35.239   -01 35 53.79  .10359 1.0929 135.8 18.6 1.33 136
2019 06 21 16  20 37 42.011   -01 28 35.67  .10339 1.0926 135.7 18.6 1.35 136